Weather History for Santa Fe, NM

Change the Weather History Date:

Saturday, December 15, 2012

  Actual Average Record
Temperature  
Mean Temperature 30 °F -  
Max Temperature 34 °F 51 °F 59 °F (2010)
Min Temperature 25 °F 16 °F 9 °F (1999)
Degree Days  
Heating Degree Days 36    
Moisture  
Dew Point 27 °F    
Average Humidity 87    
Maximum Humidity 100    
Minimum Humidity 66    
Precipitation  
Precipitation 0.07 in - - ()
Sea Level Pressure  
Sea Level Pressure 29.88 in    
Wind  
Wind Speed 7 mph (WSW)    
Max Wind Speed 15 mph    
Max Gust Speed -    
Visibility 7 miles    
Events Fog , Snow    
Averages and records for this station are not official NWS values.
T = Trace of Precipitation, MM = Missing Value Source: NWS Daily Summary

Daily Weather History Graph

Daily Weather History Graph

Search for Another Location

Airport:

Trip Planner

Search our weather history database for the weather conditions in past years. The results will help you decide how hot, cold, wet, or windy it might be!

Date:

Astronomy

Dec. 15, 2012 Rise Set
Actual Time 7:06 AM MST 4:52 PM MST
Civil Twilight 6:38 AM MST 5:21 PM MST
Nautical Twilight 6:06 AM MST 5:53 PM MST
Astronomical Twilight 5:35 AM MST 6:24 PM MST
Moon 9:05 AM MST (12/15) 7:55 PM MST (12/15)
Length of Visible Light 10h 42m
Length of Day
9h 45m
Waxing Crescent, 9% of the Moon is Illuminated
Dec 15
Waxing Crescent
Dec 19
First Quarter
Dec 28
Full
Jan 4
Last Quarter
Jan 11
New

Hourly Weather History & Observations

Time (MST) Temp. Windchill Dew Point Humidity Pressure Visibility Wind Dir Wind Speed Gust Speed Precip Events Conditions
12:53 AM 30.9 °F 22.2 °F 21.9 °F 69% 29.95 in 10.0 mi West 10.4 mph - N/A   Overcast
1:53 AM 28.0 °F 18.6 °F 21.0 °F 75% 29.95 in 10.0 mi WNW 10.4 mph - N/A   Clear
2:53 AM 30.0 °F 19.1 °F 19.9 °F 66% 29.91 in 10.0 mi WNW 15.0 mph - N/A   Clear
3:53 AM 28.0 °F 18.6 °F 19.9 °F 72% 29.93 in 10.0 mi WNW 10.4 mph - N/A   Clear
4:53 AM 26.1 °F 18.4 °F 19.9 °F 78% 29.94 in 10.0 mi WSW 6.9 mph - N/A   Overcast
5:53 AM 27.0 °F 23.0 °F 19.9 °F 75% 29.91 in 10.0 mi NE 3.5 mph - N/A   Overcast
6:53 AM 25.0 °F - 21.0 °F 85% 29.94 in 10.0 mi Calm Calm - N/A   Mostly Cloudy
7:53 AM 28.9 °F 25.2 °F 21.9 °F 75% 29.95 in 10.0 mi West 3.5 mph - N/A   Overcast
8:43 AM 28.4 °F 24.6 °F 26.6 °F 93% 29.96 in 2.5 mi WSW 3.5 mph - 0.00 in Snow Light Snow
8:53 AM 28.9 °F 23.9 °F 26.1 °F 89% 29.96 in 2.0 mi SW 4.6 mph - 0.00 in Snow Light Snow
8:58 AM 28.4 °F 24.6 °F 26.6 °F 93% 29.96 in 3.0 mi WSW 3.5 mph - 0.00 in Snow Light Snow
9:45 AM 30.2 °F - 28.4 °F 93% 29.96 in 4.0 mi Calm Calm - 0.00 in Snow Light Snow
9:53 AM 30.9 °F - 28.9 °F 92% 29.95 in 7.0 mi Calm Calm - 0.00 in Snow Light Snow
10:20 AM 33.8 °F 26.4 °F 26.6 °F 75% 29.95 in 10.0 mi West 9.2 mph - 0.00 in   Mostly Cloudy
10:53 AM 34.0 °F 26.6 °F 26.1 °F 73% 29.92 in 10.0 mi WSW 9.2 mph - 0.00 in   Mostly Cloudy
11:53 AM 34.0 °F 25.0 °F 26.1 °F 73% 29.90 in 10.0 mi WSW 12.7 mph - N/A   Overcast
12:53 PM 34.0 °F 26.6 °F 26.1 °F 73% 29.87 in 10.0 mi WSW 9.2 mph - N/A   Mostly Cloudy
1:53 PM 34.0 °F 28.8 °F 26.1 °F 73% 29.88 in 10.0 mi West 5.8 mph - N/A   Overcast
2:53 PM 34.0 °F 28.0 °F 26.1 °F 73% 29.86 in 10.0 mi WSW 6.9 mph - N/A   Overcast
3:53 PM 34.0 °F 31.0 °F 26.1 °F 73% 29.86 in 10.0 mi WSW 3.5 mph - N/A   Overcast
4:53 PM 32.0 °F - 26.1 °F 79% 29.86 in 10.0 mi Calm Calm - N/A   Mostly Cloudy
5:53 PM 30.0 °F 25.2 °F 26.1 °F 85% 29.84 in 10.0 mi ESE 4.6 mph - N/A   Overcast
6:53 PM 30.0 °F 26.5 °F 27.0 °F 88% 29.85 in 10.0 mi ENE 3.5 mph - N/A   Overcast
7:53 PM 30.9 °F 26.2 °F 27.0 °F 85% 29.83 in 10.0 mi SSE 4.6 mph - N/A   Overcast
8:09 PM 30.2 °F - 26.6 °F 86% 29.84 in 5.0 mi Calm Calm - 0.00 in Snow Light Snow
8:37 PM 30.2 °F 26.7 °F 26.6 °F 86% 29.84 in 9.0 mi South 3.5 mph - 0.00 in   Overcast
8:44 PM 30.2 °F 25.4 °F 28.4 °F 93% 29.83 in 3.0 mi SE 4.6 mph - 0.00 in Snow Light Snow
8:48 PM 30.2 °F - 28.4 °F 93% 29.83 in 3.0 mi Calm Calm - 0.00 in Snow Light Snow
8:53 PM 30.0 °F - 28.9 °F 96% 29.83 in 5.0 mi Calm Calm - 0.00 in Snow Light Snow
9:41 PM 30.2 °F 26.7 °F 30.2 °F 100% 29.82 in 2.5 mi SSE 3.5 mph - 0.00 in Snow Light Snow
9:49 PM 30.2 °F 26.7 °F 30.2 °F 100% 29.84 in 1.5 mi West 3.5 mph - 0.01 in Snow Light Snow
9:50 PM 30.9 °F 27.5 °F 30.0 °F 96% 29.83 in 1.2 mi West 3.5 mph - 0.01 in Snow Light Snow
9:54 PM 30.2 °F 24.3 °F 30.2 °F 100% 29.84 in 0.8 mi West 5.8 mph - 0.01 in Snow Light Snow
10:05 PM 30.2 °F 24.3 °F 30.2 °F 100% 29.85 in 0.5 mi WNW 5.8 mph - 0.05 in Fog , Snow Snow
10:13 PM 30.2 °F 24.3 °F 30.2 °F 100% 29.85 in 2.5 mi West 5.8 mph - 0.06 in Snow Light Snow
10:20 PM 30.2 °F 21.9 °F 28.4 °F 93% 29.85 in 9.0 mi WSW 9.2 mph - 0.06 in Snow Light Snow
10:30 PM 30.2 °F 21.9 °F 30.2 °F 100% 29.85 in 9.0 mi SW 9.2 mph - 0.06 in Snow Light Snow
10:39 PM 30.2 °F 21.3 °F 30.2 °F 100% 29.86 in 9.0 mi SW 10.4 mph - 0.06 in Snow Light Snow
10:49 PM 30.2 °F 20.8 °F 30.2 °F 100% 29.86 in 10.0 mi SW 11.5 mph - 0.06 in   Overcast
10:53 PM 30.0 °F 21.7 °F 30.0 °F 100% 29.84 in 10.0 mi SW 9.2 mph - 0.06 in   Overcast
11:18 PM 28.4 °F 22.2 °F 28.4 °F 100% 29.86 in 10.0 mi SSW 5.8 mph - N/A   Overcast
11:53 PM 27.0 °F 21.6 °F 25.0 °F 92% 29.86 in 10.0 mi SSW 4.6 mph - N/A   Partly Cloudy